Home   Weather   Iqaluit   Past weeks

Flag for Canada Past Weather in Iqaluit, Nunavut, Canada — Yesterday and Last 2 Weeks

Now
37 °F

Partly cloudy.


Feels Like: 37 °F
Forecast: 36 / 43 °F
Wind: 2 mph from Northwest

Location: Iqaluit

Current Time: Sep 24, 2016 at 11:51:55 PM

Latest Report: Sep 24, 2016 at 11:00 PM


Visibility: 15 mi

Pressure: 30.17 "Hg

Humidity: 93%

Dew Point: 36 °F

Location of IqaluitLocation

Past Weather in Iqaluit — Graph

°F

Iqaluit Temperature Yesterday

Maximum temperature yesterday: 39 °F (at 4:00 PM)
Minimum temperature yesterday: 36 °F (at 1:00 AM)
Average temperature yesterday: 36 °F

High & Low Weather Summary for the Past Weeks

 TemperatureHumidityPressure
High52 °F (Sep 10, 4:00 PM)100% (Sep 21, 11:00 PM)30.23 "Hg (Sep 21, 11:00 PM)
Low27 °F (Sep 18, 11:00 PM)48% (Sep 18, 3:00 PM)29.55 "Hg (Sep 15, 7:00 AM)
Average37 °F79%29.84 "Hg
* Reported Sep 9 10:00 PM — Sep 24 10:00 PM, Iqaluit, Weather by CustomWeather, © 2016

Note: Actual official high and low records may vary slightly from our data, if they occured in-between our weather recording intervals... More about our weather records

Advertising

Iqaluit Weather History for the Previous 24 Hours

Scroll right to see more
 ConditionsComfort  
Time TempWeatherWind HumidityBarometerVisibility
10:00 PM
Sat, Sep 24
37 °FPartly cloudy.3 mph93%30.17 "Hg15 mi
9:00 PM36 °FPassing clouds.2 mph100%30.17 "Hg15 mi
8:00 PM36 °FPassing clouds.2 mph100%30.17 "Hg15 mi
7:00 PM37 °FPassing clouds.2 mph93%30.16 "Hg30 mi
6:00 PM39 °FBroken clouds.2 mph87%30.15 "Hg30 mi
5:00 PM41 °FScattered clouds.No wind81%30.14 "Hg30 mi
4:00 PM39 °FPartly sunny.3 mph93%30.12 "Hg30 mi
3:00 PM39 °FBroken clouds.5 mph93%30.11 "Hg30 mi
2:00 PM39 °FBroken clouds.5 mph93%30.09 "Hg30 mi
1:00 PM41 °FBroken clouds.5 mph87%30.08 "Hg20 mi
12:00 PM39 °FPartly sunny.6 mph93%30.07 "Hg20 mi
11:00 AM39 °FPartly sunny.3 mph93%30.06 "Hg20 mi
10:00 AM37 °FCloudy.2 mph100%30.05 "Hg15 mi
9:00 AM37 °FFog.3 mph100%30.03 "Hg15 mi
8:00 AM37 °FFog.5 mph93%30.01 "Hg6 mi
7:47 AM36 °FBroken clouds.5 mph100%30.01 "Hg6 mi
7:00 AM36 °FDrizzle. Fog.No wind100%29.99 "Hg2 mi
6:00 AM36 °FDrizzle. Fog.2 mph100%29.99 "Hg1 mi
5:00 AM36 °FDrizzle. Fog.2 mph100%29.97 "Hg1 mi
4:47 AM36 °FDrizzle. Fog.No wind100%29.97 "Hg1 mi
4:00 AM36 °FDrizzle. Fog.No wind100%29.95 "Hg3 mi
3:00 AM36 °FDrizzle. Fog.No wind100%29.93 "Hg2 mi
2:48 AM36 °FDrizzle. Fog.No wind100%29.93 "Hg2 mi
2:00 AM36 °FDrizzle. Fog.2 mph93%29.92 "Hg1 mi
1:00 AM36 °FDrizzle. Fog.No wind100%29.90 "Hg2 mi
12:00 AM36 °FDrizzle. Fog.2 mph100%29.89 "Hg2 mi
11:00 PM
Fri, Sep 23
36 °FDrizzle. Fog.3 mph100%29.87 "Hg2 mi
Weather by CustomWeather, © 2016

See weather overviewHow to use our weather pages